#timestamp,LO_Frequency,Hit,StdDev 
1629018015.6,286046996.9,N
1629018035.5,286046997.1,N
1629018055.3,286046997.2,N
1629018075.1,286046997.2,N
1629018095.9,286046996.9,N
1629018115.7,286046997.2,N
1629018135.6,286046997.1,N
1629018155.4,286046997.7,N
1629018175.2,286046997.3,N
1629018195.1,286046994.9,Y
1629018196.0,286046994.9,P
1629018215.8,286046996.6,N
1629018235.6,286046998.8,N
1629018255.5,286046999.2,N
1629018275.3,286046996.6,N
1629018295.2,286046999.6,N
1629018315.9,286046998.7,N
1629018335.7,286047000.7,N
1629018355.6,286047000.6,N
1629018375.4,286047001.0,N
1629018395.2,286047001.1,N
1629018415.1,286046999.2,N
1629018416.0,286046999.2,N
1629018435.8,286046999.1,N
1629018455.7,286046996.6,N
1629018475.5,286046998.8,N
1629018495.3,286046999.3,N
1629018515.2,286046998.8,N
1629018535.0,286046996.7,N
1629018535.9,286046996.7,N
1629018555.7,286046996.5,N
1629018575.6,286046998.4,N
1629018595.4,286046998.4,N
1629018615.3,286047000.7,N
1629018635.1,286047000.8,N
1629018636.0,286047000.8,N
1629018655.8,286047000.7,N
1629018675.7,286047000.4,N
1629018695.5,286047000.7,N
1629018715.3,286046998.7,N
1629018735.2,286046998.6,N
1629018755.0,286046998.5,N
1629018755.9,286046998.5,N
1629018775.8,286047000.5,N
1629018795.6,286047001.1,N
1629018815.4,286046998.2,N
1629018835.3,286046998.6,N
1629018855.1,286046998.3,N
1629018875.8,286046998.7,N
1629018895.7,286046998.2,N
1629018915.5,286047000.6,N
1629018935.4,286046998.6,N
1629018955.2,286046998.9,N
1629018975.0,286046999.4,N
1629018975.9,286046999.4,N
1629018995.8,286046999.4,N
1629019015.3,286046998.3,N
1629019035.2,286046998.1,N
1629019055.9,286046998.7,N
1629019075.7,286047001.1,N
1629019095.6,286046999.5,N
1629019115.4,286046999.3,N
1629019135.2,286046998.7,N
1629019155.1,286046998.5,N
1629019156.0,286046998.5,N
1629019175.8,286047001.2,N
1629019195.7,286047000.7,N
1629019215.5,286047000.9,N
1629019235.3,286046998.2,N
1629019255.2,286047000.7,N
1629019275.0,286047000.9,N
1629019275.9,286047000.9,N
1629019295.7,286047000.6,N
1629019315.6,286047000.0,N
1629019335.4,286047000.9,N
1629019355.3,286046998.9,N
1629019375.1,286046998.4,N
1629019376.0,286046998.4,N
1629019395.8,286046999.4,N
1629019415.7,286046999.5,N
1629019435.5,286046998.6,N
1629019455.3,286046998.5,N
1629019475.2,286046998.6,N
1629019495.0,286046998.7,N
1629019495.9,286046998.7,N
1629019515.8,286046998.5,N
1629019535.6,286047001.2,N
1629019555.4,286046999.9,N
1629019575.3,286047000.2,N
1629019595.1,286047000.7,N
1629019615.8,286046998.1,N
1629019635.7,286046998.8,N
1629019655.5,286047001.1,N
1629019675.4,286047000.9,N
1629019695.2,286047000.4,N
1629019715.0,286047000.7,N
1629019715.9,286047000.7,N
1629019735.8,286046998.1,N
1629019755.6,286046999.6,N
1629019775.5,286046997.0,N
1629019795.3,286046997.0,N
1629019815.1,286046997.1,N
1629019835.9,286046998.0,N
1629019855.7,286046997.0,N
1629019875.5,286046996.9,N
1629019895.4,286046997.4,N
1629019915.2,286046997.1,N
1629019935.1,286046996.8,N
1629019936.0,286046996.8,N
1629019955.8,286046997.2,N
1629019975.6,286046996.9,N
1629019995.5,286046997.3,N
1629020015.3,286046997.7,N
1629020035.1,286046995.0,Y
1629020055.9,286046997.3,P
1629020075.7,286046995.0,P
1629020095.6,286046995.3,P
1629020115.4,286046995.0,Y
1629020135.2,286047001.0,P
1629020155.1,286046998.3,N
1629020156.0,286046998.3,N
1629020175.8,286047001.0,N
1629020195.6,286047000.0,N
1629020215.5,286047000.2,N
1629020235.3,286047000.2,N
1629020255.2,286047002.7,N
1629020275.9,286047000.5,N
1629020295.7,286047000.1,N
1629020315.6,286047000.5,N
1629020335.4,286047000.8,N
1629020355.2,286046999.9,N
1629020375.1,286047002.0,N
1629020376.0,286047002.0,N
1629020425.9,286047001.6,E
1629020435.8,286047002.3,N
1629020455.6,286047000.3,P
1629020475.5,286047000.6,N
1629020495.3,286047000.6,N
1629020515.1,286047000.4,N
1629020535.9,286046998.2,N
1629020555.7,286047000.8,N
1629020575.5,286047001.1,N
1629020595.4,286046999.5,N
1629020615.2,286046999.6,N
1629020635.1,286046996.7,Y
1629020636.0,286046996.7,P
1629020655.8,286046997.5,N
1629020675.6,286046995.4,N
1629020695.5,286046995.5,N
1629020715.3,286046997.7,N
1629020735.1,286046997.1,N
1629020755.9,286046995.0,Y
1629020775.7,286047000.4,P
1629020795.6,286046998.2,N
1629020815.4,286046998.1,N
1629020835.2,286047001.2,N
1629020855.1,286046999.1,N
1629020856.0,286046999.1,N
1629020875.8,286046999.1,N
1629020895.6,286046998.8,N
1629020915.5,286046999.4,N
1629020935.3,286046999.0,N
1629020955.2,286046998.1,N
1629020975.9,286046998.1,N
1629020995.7,286046999.9,N
1629021015.6,286046999.9,N
1629021035.4,286047001.9,N
1629021055.2,286047003.6,N
1629021075.1,286047003.8,N
1629021076.0,286047003.8,N
1629021095.8,286047005.8,N
1629021115.7,286047005.4,N
1629021135.5,286047004.6,N
1629021155.3,286047007.4,N
1629021175.2,286047007.4,N
1629021195.0,286047007.2,N
1629021195.9,286047007.2,N
1629021215.8,286047006.7,N
1629021235.6,286047006.4,N
1629021255.5,286047006.2,N
1629021275.3,286047006.4,N
1629021295.1,286047007.2,N
1629021315.9,286047007.6,N
1629021335.7,286047005.2,N
1629021355.5,286047006.9,N
1629021375.4,286047006.9,N
1629021395.2,286047006.8,N
1629021415.1,286047006.6,N
1629021416.0,286047006.6,N
1629021435.8,286047006.2,N
1629021455.6,286047006.1,N
1629021475.5,286047009.1,Y
1629021495.3,286047001.7,P
1629021515.2,286047002.2,N
1629021535.9,286047002.5,N
1629021555.7,286047002.4,N
1629021575.6,286047002.8,N
1629021595.4,286047000.2,N
